Starlink 31422

operational
NORAD ID: 59354 Int'l Des: 2024-060 Owner: SPXS Country: US Constellation: starlink
LEOCIRCULAR

Starlink 31422について

説明を読み込み中...

リアルタイム位置

3D地球を読み込み中...

次回通過

高度履歴

Altitude vs Time

uPlot chart will show altitude changes over time

軌道要素

1 59354U 24060G 26036.48918941 -.00003547 00000-0 -11940-3 0 9998
2 59354 42.9989 82.0993 0000389 213.6479 146.4348 15.27590261105130
Epoch: Feb 5, 2026 • Age: 11 hours

現在のステータス

高度 482.8 km
速度 7.63 km/s
衛星直下点 21.80°N, 14.4°W
打ち上げ日 Mar 31, 2024
運用期間 1.8 years
タイプ internet

技術仕様

分類 Payload
質量 730.00 kg
乾燥質量 700.00 kg
総質量 730.00 kg
長さ 0.30 m
直径 4.10 m
スパン 29.00 m
形状 Box + pan
製造者 SPXS
バスタイプ Starlink V2M
フェーズステータス In Orbit
所有者/国 SPXS/US

大規模コンステレーション

Loading constellations...